Preview of NWS' New Version of Forecast
This preview is not operational and should not be used for support decisions.

Regional Weather Roundup (RWR)

Issued by National Weather Service (NWS)

                            
000
ASUS45 KBOU 242210
RWRCO 

WEATHER ROUNDUP FOR COLORADO
NATIONAL WEATHER SERVICE DENVER/BOULDER CO
400 PM MDT WED APR 24 2019

NOTE: "FAIR" INDICATES FEW OR NO CLOUDS BELOW 12000 FEET WITH NO
SIGNIFICANT WEATHER AND/OR OBSTRUCTIONS TO VISIBILITY.

COZ001>005-013-030-031-242300-
...NORTHWEST COLORADO...
  
CITY           SKY/WX    TMP DP  RH WIND       PRES   REMARKS
CRAIG          FAIR      68  36  30 W9G17     30.03F                  
HAYDEN         CLOUDY    62  33  33 W9        30.06F                  
MEEKER         PTSUNNY   67  29  24 NW12G20   30.04F                  
RANGELY        FAIR      70  33  25 SW9       30.00F                  
RABBIT EARS PA NOT AVBL                                               
STEAMBOAT SPGS CLOUDY    60  33  37 W6        30.06F                  
WALDEN         PTSUNNY   59  25  27 W16G24    30.11S                  
$$

COZ006>008-011-242300-
...WEST CENTRAL VALLEYS...
  
CITY           SKY/WX    TMP DP  RH WIND       PRES   REMARKS
GRAND JUNCTION FAIR      74  35  24 W7        29.97F                  
MONTROSE       FAIR      70  30  22 N10       30.03F                  
EAGLE          CLOUDY    66  28  24 W7        30.05F                  
RIFLE          FAIR      71  34  25 NW7G17    29.99F                  
DELTA          PTSUNNY   74  29  18 E3        29.99F                  
NUCLA          FAIR      70  28  21 N6        30.05F                  
$$

COZ017>023-064>068-242300-
...SOUTHWEST COLORADO...
  
CITY           SKY/WX    TMP DP  RH WIND       PRES   REMARKS
DURANGO        CLOUDY    70  32  24 W12G23    30.01F                  
CORTEZ         FAIR      72  34  24 W17G26    30.01F                  
PAGOSA SPRINGS CLOUDY    63  29  28 SW7       30.06F                  
TELLURIDE      PTSUNNY   55  28  35 NE3       30.19F                  
WOLF CREEK PAS PTSUNNY   41  19  42 NW6       30.32F                  
$$

COZ009-010-012-014-032>034-037-058>063-242300-
...CENTRAL COLORADO...
  
CITY           SKY/WX    TMP DP  RH WIND       PRES   REMARKS
ASPEN          CLOUDY    59  27  29 N9G16     30.09F                  
BUENA VISTA    FAIR      64  21  19 N14G21    30.05F                  
COPPER MTN     NOT AVBL                                               
BERTHOUD PASS  CLOUDY    32  23  69 NW26G36   30.27F WCI  18          
COTTONWOOD PAS CLOUDY    55  19  24 N6        30.16F                  
GUNNISON       PTSUNNY   60  28  29 W10G16    30.09F                  
GRANBY         MOCLDY    60  27  28 W14G20    30.09F                  
KREMMLING      PTSUNNY   59  30  33 NW7       30.08F                  
LEADVILLE      CLOUDY    45  25  45 NW12      30.17F                  
MONARCH PASS   CLOUDY    39  25  56 W22G29    30.38F                  
SALIDA         CLOUDY    67  24  20 SW5       30.10F                  
SUNLIGHT       PTSUNNY   41  27  56 W7        30.29S                  
WILKERSON PASS CLOUDY    45  21  39 CALM      30.26S                  
$$

COZ069>075-242300-
...SAN LUIS VALLEY/SANGRE DE CRISTO MOUNTAINS...
  
CITY           SKY/WX    TMP DP  RH WIND       PRES   REMARKS
ALAMOSA        FAIR      64  20  18 NW12G23   30.03F                  
DEL NORTE      FAIR      59  28  30 CALM      30.07F                  
LA VETA PASS   NOT AVBL                                               
SAGUACHE       CLOUDY    59  28  31 CALM      30.06F                  
$$

COZ035-036-038>040-242300-
...NORTHERN COLORADO FRONT RANGE...
  
CITY           SKY/WX    TMP DP  RH WIND       PRES   REMARKS
DENVER INTL AP PTSUNNY   70  33  25 N9        29.93F                  
AURORA         PTSUNNY   71  32  24 N7        29.94F                  
FRONT RANGE AP PTSUNNY   72  34  25 N9        29.93F                  
ERIE MUNI ARPT FAIR      71  31  23 NE6       29.96F                  
BOULDER MUN AP PTSUNNY   70  36  28 NE7       29.91F                  
CENTENNIAL     PTSUNNY   72  33  24 N9G20     29.94F                  
BROOMFIELD     NOT AVBL                                               
FORT COLLINS   FAIR      69  36  29 CALM      29.92F                  
LONGMONT       FAIR      74  35  23 N5        29.93F                  
$$

COZ041-046-047-076>085-087-088-242300-
...PIKES PEAK/PALMER DIVIDE AND SOUTHERN FOOTHILLS...
  
CITY           SKY/WX    TMP DP  RH WIND       PRES   REMARKS
COLO. SPRINGS  PTSUNNY   70  27  20 W10       29.96F                  
A. F. ACADEMY  PTSUNNY   66  26  22 N6        29.95F                  
SCHRIEVER AFB  NOT AVBL                                               
CHEYENNE MTN   PTSUNNY   65  27  23 N6        29.95F                  
ELLICOTT         N/A    N/A N/A N/A VRB5      29.95F                  
FALCON         PTSUNNY   65  25  22 N7G22     30.01F                  
FORT CARSON    PTSUNNY   71  27  19 NE3       29.93F                  
LIMON          FAIR      70  34  26 VRB6G18   29.92F                  
MONUMENT HILL  CLOUDY    63  30  29 MISG      30.02F                  
CANON CITY     NOT AVBL                                               
WALSENBURG     NOT AVBL                                               
TRINIDAD       FAIR      71  31  22 N9G18     29.94F                  
$$

COZ042>045-048>051-090-091-242300-
...NORTHEAST COLORADO...
  
CITY           SKY/WX    TMP DP  RH WIND       PRES   REMARKS
GREELEY ARPT   FAIR      73  36  25 SE3       29.90F                  
AKRON          PTSUNNY   71  37  28 NW8       29.89F                  
BURLINGTON     FAIR      76  35  22 N7        29.87F                  
WRAY           FAIR      75  32  20 NW3       29.85F                  
YUMA           NOT AVBL                                               
STERLING       FAIR      72  37  28 CALM      29.85F                  
HOLYOKE        FAIR      79  34  19 W5        29.85F                  
FORT MORGAN      N/A     72  30  21 NW5       29.89F                  
$$

COZ086-089-092>099-242300-
...SOUTHEAST COLORADO...
  
CITY           SKY/WX    TMP DP  RH WIND       PRES   REMARKS
PUEBLO         PTSUNNY   77  31  18 MISG      29.87F                  
LA JUNTA       FAIR      77  31  18 E3        29.85F                  
LAMAR          FAIR      79  31  17 NE15      29.82F                  
SPRINGFIELD      N/A     73  33  23 N12       29.86F                  
$$